Nellis AFB, NV

8:10 PM PST on February 17, 2018 (GMT -0800)
Nellis Air Force Base

Weather History for KLSV - December, 2012

Change the Weather History Date:

Monday, December 10, 2012

  Actual Average Record
Temperature  
Mean Temperature 44 °F -  
Max Temperature 54 °F 57 °F 68 °F (2002)
Min Temperature 33 °F 35 °F 24 °F (2013)
Degree Days  
Heating Degree Days 22    
Moisture  
Dew Point 18 °F    
Average Humidity 34    
Maximum Humidity 49    
Minimum Humidity 25    
Precipitation  
Precipitation 0.00 in - - ()
Sea Level Pressure  
Sea Level Pressure 30.22 in    
Wind  
Wind Speed 4 mph (NE)    
Max Wind Speed 14 mph    
Max Gust Speed -    
Visibility 10 miles    
Events      
Averages and records for this station are not official NWS values.
T = Trace of Precipitation, MM = Missing Value Source: NWS Daily Summary

Daily Weather History Graph

Daily Weather History Graph

Search for Another Location

Airport or City:

Trip Planner

Search our weather history database for the weather conditions in past years. The results will help you decide how hot, cold, wet, or windy it might be!

Date:

Astronomy

Dec. 10, 2012 Rise Set
Actual Time 6:40 AM PST 4:25 PM PST
Civil Twilight 6:12 AM PST 4:54 PM PST
Nautical Twilight 5:40 AM PST 5:26 PM PST
Astronomical Twilight 5:08 AM PST 5:57 PM PST
Moon 3:32 AM PST (12/10) 2:15 PM PST (12/10)
Length of Visible Light 10h 41m
Length of Day
9h 44m
Waning Crescent, 9% of the Moon is Illuminated
Dec 10
Waning Crescent
Dec 13
New
Dec 19
First Quarter
Dec 28
Full
Jan 4
Last Quarter

Hourly Weather History & Observations

Time (PST) Temp. Windchill Dew Point Humidity Pressure Visibility Wind Dir Wind Speed Gust Speed Precip Events Conditions
12:58 AM 43.7 °F 36.9 °F 17.2 °F 35% 30.30 in 10.0 mi North 13.8 mph - N/A   Clear
1:58 AM 41.5 °F - 17.2 °F 38% 30.31 in 10.0 mi NNE 1.2 mph - N/A   Clear
2:58 AM 39.9 °F - 17.1 °F 40% 30.30 in 10.0 mi Calm Calm - N/A   Clear
3:58 AM 38.7 °F - 16.5 °F 41% 30.30 in 10.0 mi Calm Calm - N/A   Clear
4:58 AM 37.2 °F - 16.9 °F 44% 30.31 in 10.0 mi Calm Calm - N/A   Clear
5:58 AM 35.1 °F - 16.0 °F 46% 30.32 in 10.0 mi Calm Calm - N/A   Clear
6:58 AM 33.8 °F - 16.2 °F 49% 30.32 in 10.0 mi NNW 2.3 mph - N/A   Clear
7:58 AM 35.8 °F - 17.1 °F 47% 30.32 in 10.0 mi NE 2.3 mph - N/A   Clear
8:58 AM 41.5 °F - 17.8 °F 38% 30.31 in 10.0 mi ENE 2.3 mph - N/A   Clear
9:58 AM 46.2 °F 45.0 °F 18.0 °F 32% 30.31 in 10.0 mi South 3.5 mph - N/A   Clear
10:58 AM 48.4 °F - 17.8 °F 30% 30.29 in 10.0 mi SW 4.6 mph - N/A   Clear
11:58 AM 50.5 °F - 18.0 °F 28% 30.24 in 10.0 mi SE 1.2 mph - N/A   Clear
12:58 PM 52.7 °F - 17.8 °F 25% 30.20 in 10.0 mi Variable 1.2 mph - N/A   Clear
1:28 PM 51.8 °F - 17.6 °F 26% 30.18 in 1.2 mi SW 2.3 mph - N/A   Haze
1:38 PM 53.6 °F - 19.4 °F 26% 30.18 in 7.0 mi Variable 2.3 mph - N/A   Clear
1:58 PM 54.0 °F - 18.7 °F 25% 30.17 in 10.0 mi West 1.2 mph - N/A   Clear
2:58 PM 54.0 °F - 19.0 °F 25% 30.16 in 10.0 mi Calm Calm - N/A   Clear
3:58 PM 54.0 °F - 19.9 °F 26% 30.14 in 10.0 mi NE 2.3 mph - N/A   Clear
4:58 PM 52.3 °F - 19.4 °F 27% 30.13 in 10.0 mi NE 2.3 mph - N/A   Clear
5:58 PM 48.6 °F - 17.8 °F 29% 30.13 in 10.0 mi Calm Calm - N/A   Clear
6:58 PM 45.1 °F - 18.0 °F 34% 30.14 in 10.0 mi Calm Calm - N/A   Clear
7:58 PM 43.9 °F - 18.7 °F 37% 30.14 in 10.0 mi Calm Calm - N/A   Clear
8:58 PM 42.8 °F 38.6 °F 17.8 °F 37% 30.13 in 10.0 mi NE 6.9 mph - N/A   Clear
9:58 PM 43.3 °F 37.7 °F 17.6 °F 36% 30.14 in 10.0 mi ENE 10.4 mph - N/A   Clear
10:58 PM 43.9 °F 39.9 °F 17.6 °F 35% 30.14 in 10.0 mi East 6.9 mph - N/A   Clear
11:58 PM 42.6 °F 37.8 °F 17.6 °F 37% 30.14 in 10.0 mi NE 8.1 mph - N/A   Clear